Regional Weather Roundup
Issued by NWS

Home | Current Version | Previous Version | Graphics & Text | Print | Product List | Glossary Off
Versions: 1 2 3 4 5 6 7 8 9 10 11 12 13 14 15 16 17 18 19 20 21 22 23 24 25 26 27 28 29 30 31 32 33 34 35 36 37 38 39 40 41 42 43 44 45 46 47 48 49 50

000
ASUS43 KDMX 221706
RWRIA

WEATHER ROUNDUP FOR IOWA
NATIONAL WEATHER SERVICE DES MOINES IA
1200 PM CDT SAT JUL 22 2017

NOTE: "FAIR" INDICATES FEW OR NO CLOUDS BELOW 12,000 FEET WITH NO
SIGNIFICANT WEATHER AND/OR OBSTRUCTIONS TO VISIBILITY.

* - THESE STATIONS ARE NOT NWS STATIONS...THUS NOT UNDER NWS
QUALITY CONTROL.  THEY ALSO DO NOT REPORT WEATHER SUCH
AS PRECIPITATION OR FOG.

IAZ001>003-012>014-020>022-031>034-043>046-221800-
   NORTHWEST IOWA

CITY           SKY/WX    TMP DP  RH WIND       PRES   REMARKS
CARROLL *      CLOUDY    81  75  83 N13       29.87S HX  86
CHEROKEE *     MOSUNNY   82  75  78 NW7       29.88F HX  89
DENISON *      CLOUDY    81  75  83 N12       29.89S HX  86
ORANGE CITY *  MOSUNNY   81  75  83 NW9       29.90S HX  86
SHELDON *      MOSUNNY   81  73  78 VRB6      29.89S HX  85
SIOUX CITY     CLOUDY    81  75  82 N12       29.89S HX  87
SPENCER        MOSUNNY   85  73  67 N9        29.88S HX  91
STORM LAKE *   MOSUNNY   81  73  78 N7        29.89F HX  85
$$

IAZ055>058-069>071-079>083-090>094-221800-
   SOUTHWEST IOWA

CITY           SKY/WX    TMP DP  RH WIND       PRES   REMARKS
ATLANTIC *     PTSUNNY   84  79  84 N12       29.85R HX  96
AUDUBON *      CLOUDY    81  75  83 N13       29.88R HX  86
CLARINDA *     SUNNY     90  81  74 N9        29.85R HX 108
COUNCIL BLFS * MOSUNNY   84  81  89 N9        29.86S HX  98
CRESTON *      SUNNY     91  75  59 NW13      29.84S HX 102
HARLAN  *      PTSUNNY   81  79  94 N9        29.90R HX  89
LAMONI         SUNNY     90  76  63 W6        29.82R HX 101
RED OAK *      SUNNY     88  81  79 NW10      29.84S HX 105
SHENANDOAH *   SUNNY     88  81  79 N8        29.84R HX 105
$$

IAZ047>049-059>061-072>074-084-221800-
   CENTRAL IOWA

CITY           SKY/WX    TMP DP  RH WIND       PRES   REMARKS
AMES           CLOUDY    81  76  84 N15       29.84R HX  87
ANKENY *       CLOUDY    82  77  83 N12       29.84R HX  91
BOONE *        CLOUDY    79  75  89 N13       29.86R HX  82
CHARITON *     SUNNY     93  73  52 NW6G15    29.80R HX 102
DES MOINES     PTSUNNY   88  76  67 N8        29.81R HX  99
GRINNELL*      CLOUDY    81  74  80 NE6       29.85R HX  86
KNOXVILLE *    SUNNY     90  75  62 N10G17    29.80R HX 100
MARSHALLTOWN   CLOUDY    78  73  84 NE7       29.84S HX  81
NEWTON *       CLOUDY    81  75  83 N7        29.83S HX  86
PELLA *        MOSUNNY   88  76  67 N5        29.82R HX  99
$$

IAZ004>006-015-016-023>025-035-036-221800-
   NORTH CENTRAL IOWA

CITY           SKY/WX    TMP DP  RH WIND       PRES   REMARKS
ALGONA *       CLOUDY    77  73  88 NE12      29.89S
CLARION *      CLOUDY    77  75  94 N12G17    29.88S
ESTHERVILLE    CLOUDY    80  74  81 NW9       29.88S HX  85
FORT DODGE *   CLOUDY    75  72  88 N7        29.89S
MASON CITY     PTSUNNY   76  71  85 N9        29.89F
FOREST CITY *  CLOUDY    77  72  83 N8        29.89S
WEBSTER CITY * CLOUDY    77  73  88 N12       29.86R
IOWA FALLS *   CLOUDY    77  73  88 N6        29.88R
$$

IAZ007>011-017>019-026>030-037>042-050>054-066-221800-
   NORTHEAST IOWA

CITY           SKY/WX    TMP DP  RH WIND       PRES   REMARKS
CEDAR RAPIDS   CLOUDY    78  73  84 CALM      29.84R HX  81
CHARLES CITY * CLOUDY    73  73 100 N8        29.87S
DECORAH *      CLOUDY    72  72 100 NE7       29.86S FOG
DUBUQUE        CLOUDY    79  69  71 S6        29.85S HX  81
MONTICELLO *   CLOUDY    77  72  83 CALM      29.84S
OELWEIN *        N/A    N/A N/A N/A MISG        N/A
WATERLOO       CLOUDY    77  70  79 CALM      29.83F
$$

IAZ064-065-067-068-078-221800-
   EAST CENTRAL IOWA

CITY           SKY/WX    TMP DP  RH WIND       PRES   REMARKS
DAVENPORT      PTSUNNY   80  71  74 VRB3      29.86S HX  84
IOWA CITY      CLOUDY    81  72  74 CALM      29.84S HX  85
MT. PLEASANT * MOSUNNY   84  72  67 S7        29.83R HX  90
MUSCATINE *    PTSUNNY   81  72  74 VRB5      29.83S HX  84
QUAD CITIES    CLOUDY    81  70  69 S6        29.83S HX  84
$$

IAZ062-063-075>077-085>089-095>099-221800-
   SOUTHEAST IOWA

CITY           SKY/WX    TMP DP  RH WIND       PRES   REMARKS
BURLINGTON     SUNNY     82  76  81 S9        29.83R HX  89
FAIRFIELD *    PTSUNNY   86  75  70 S7        29.81R HX  95
FORT MADISON * SUNNY     82  75  78 S10       29.83R HX  89
KEOKUK *       SUNNY     84  75  74 S13G20    29.80S HX  92
OSKALOOSA *      N/A     89  76  66 NW6       29.81R HX 100
CENTERVILLE *    N/A     91  77  62 CALM      29.82S HX 105
OTTUMWA        MOSUNNY   91  75  59 SW5       29.80R HX 101
WASHINGTON *   PTSUNNY   82  75  78 CALM      29.84R HX  89
$$

ABBREVIATIONS USED IN REMARKS
   TC - TEMPERATURES IN CELSIUS
  WCI - WIND CHILL INDEX
   HX - HEAT INDEX
  VSB - VISIBILITY
$$





USA.gov is the U.S. government's official web portal to all federal, state and local government web resources and services.